Regional Weather Roundup
Issued by NWS

Current Version | Previous Version | Text Only | Print | Product List | Glossary On
Versions: 1 2 3 4 5 6 7 8 9 10 11 12 13 14 15 16 17 18 19 20 21 22 23 24 25 26 27 28 29 30 31 32 33 34 35 36 37 38 39 40 41 42 43 44 45 46 47 48 49 50
000
ASUS42 KFFC 221910
RWRGA
WEATHER ROUNDUP FOR GEORGIA
NATIONAL WEATHER SERVICE PEACHTREE CITY GA
200 PM EST THU FEB 22 2018

NOTE: "FAIR" INDICATES FEW OR NO CLOUDS BELOW 12,000 FEET WITH NO
SIGNIFICANT WEATHER AND/OR OBSTRUCTIONS TO VISIBILITY.

* = USE WITH CAUTION. THE STATIONS MARKED WITH AN ASTERISK MAY NOT
REPORT WEATHER SUCH AS PRECIPITATION, FOG, OR THUNDER AND ARE NOT
QUALITY CONTROLLED BY NWS.

THE REMARK "TC" DENOTES TEMPERATURE READING IN DEGREES CELSIUS.

GAZ001>058-222000-
NORTH GEORGIA

CITY           SKY/WX    TMP DP  RH WIND       PRES   REMARKS
ATLANTA        FAIR      78  64  61 SE8       30.41F
ATHENS         FAIR      79  64  60 VRB6      30.42F
CHAMBLEE       CLOUDY    75  61  61 S6        30.41F
PEACHTREE CITY CLOUDY    78  62  57 MISG      30.41F
ROME           FAIR      80  62  54 S10       30.35F
WEST ATLANTA   PTSUNNY   77  62  59 S6        30.40F
GAINESVILLE    FAIR      76  62  62 S9        30.43F
CARTERSVILLE   FAIR      80  62  54 S8G17     30.39F


CITY           SKY/WX    TMP DP  RH WIND       PRES   REMARKS
DALTON*        FAIR      77  61  57 SW7       30.39F
LAWRENCEVILLE* PTSUNNY   75  63  66 S12       30.43F
MARIETTA       PTSUNNY   76  61  57 S6        30.40F
KENNESAW*      PTSUNNY   78  60  53 S8        30.41F
CANTON*        FAIR      79  61  53 S8G17     30.41F
BLAIRSVILLE*   FAIR      74  58  56 S9        30.43F
$$

GAZ059>098-102>109-222000-
CENTRAL GEORGIA

CITY           SKY/WX    TMP DP  RH WIND       PRES   REMARKS
AUGUSTA-BUSH   FAIR      80  64  58 SE5       30.41F
AUGUSTA-DANIEL PTSUNNY   80  63  55 VRB5      30.42F
COLUMBUS       PTSUNNY   83  63  50 VRB5      30.38F
MACON          CLOUDY    76  65  68 CALM      30.42F
ROBINS AFB     PTSUNNY   77  64  65 CALM      30.41F


CITY           SKY/WX    TMP DP  RH WIND       PRES   REMARKS
LAGRANGE*      FAIR      82  63  51 S5        30.40F
SYLVANIA*      CLOUDY    80  64  58 SE3       30.44F
MILLEDGEVILLE* PTSUNNY   77  64  65 SE3       30.42F
$$

GAZ099>101-110>166-222000-
SOUTH GEORGIA

CITY           SKY/WX    TMP DP  RH WIND       PRES   REMARKS
SAVANNAH       FAIR      81  59  47 SE6       30.42F
VALDOSTA       FAIR      79  59  50 E9        30.38F
ALMA           PTSUNNY   82  59  45 VRB6      30.40F
ST SIMONS      FAIR      77  65  66 E7        30.42F
FT STEWART     PTSUNNY   80  60  50 NE8       30.40F
ALBANY         PTSUNNY   80  63  55 NE5       30.41F
HUNTER AFB     FAIR      78  70  76 SE6       30.40F
MOODY AFB      FAIR      80  58  47 SE6       30.38F
BRUNSWICK      PTSUNNY   79  61  53 E10G16    30.43F


CITY           SKY/WX    TMP DP  RH WIND       PRES   REMARKS
BAINBRIDGE*    FAIR      82  64  54 SE5       30.38F
MOULTRIE*      FAIR      79  61  53 SE6       30.40F
VIDALIA*       FAIR      82  63  51 S5        30.42F
WAYCROSS*      FAIR      82  54  38 SE6       30.40F
DOUGLAS*       PTSUNNY   77  59  53 SE3       30.41F
$$



USA.gov is the U.S. government's official web portal to all federal, state and local government web resources and services.